P/2016 BA14 ( PanSTARRS )

Japanese version
Home page
Updated on November 13, 2016

---------------------------------------------------------------------

* Profile

Discovery Date January 22, 2016
Magnitude 19.6 mag
Discoverer Pan-STARRS 1 telescope (Haleakala)

* Pictures

* Orbital Elements

Epoch 2016 Apr. 2.0 TT = JDT 2457480.5
T 2016 Mar. 15.51741 TT                                 MPCW
q   1.0085745            (2000.0)            P               Q
n   0.18755788     Peri.  351.89525     -0.99121465     -0.13222836
a   3.0225895      Node   180.53526     +0.13205435     -0.98810495
e   0.6663210      Incl.   18.92015     +0.00742720     -0.07851283
P   5.25
From 1792 observations 2015 Dec. 1-2016 Oct. 9, mean residual 0".4.

* Finding Charts

* Magnitudes Graph

        H = 19.0  G = 0.15

---------------------------------------------------------------------

The orbital elements are published on M.P.E.C. 2016-U66.
The charts are made with StellaNavigator Ver.10 (AstroArts).
The magnitudes graphs are made with Comet for Windows.

---------------------------------------------------------------------

Copyright(C) Seiichi Yoshida (comet@aerith.net). All rights reserved.